OBJECT_NAME,OBJECT_ID,EPOCH,MEAN_MOTION,ECCENTRICITY,INCLINATION,RA_OF_ASC_NODE,ARG_OF_PERICENTER,MEAN_ANOMALY,EPHEMERIS_TYPE,CLASSIFICATION_TYPE,NORAD_CAT_ID,ELEMENT_SET_NO,REV_AT_EPOCH,BSTAR,MEAN_MOTION_DOT,MEAN_MOTION_DDOT IRIDIUM 106,2017-003A,2026-09-11T22:58:29.946720,14.34217618,.00020029,86.3935,52.2483,83.5289,276.6135,0,U,41917,999,50564,.9460859E-5,.46E-6,0 IRIDIUM 103,2017-003B,2026-09-11T22:40:14.017152,14.34217412,.00023195,86.3936,52.1533,90.3624,269.7838,0,U,41918,999,50566,.24926221E-4,.9E-6,0 IRIDIUM 109,2017-003C,2026-09-12T03:50:45.875616,14.34218382,.00021875,86.3937,52.1239,91.2406,268.9041,0,U,41919,999,50566,.7315679E-5,.4E-6,0 IRIDIUM 102,2017-003D,2026-09-11T22:03:42.285024,14.34217796,.00020889,86.3935,52.1465,91.2510,268.8925,0,U,41920,999,50571,.6924002E-5,.39E-6,0 IRIDIUM 105,2017-003E,2026-09-12T07:06:53.167680,14.34218589,.00022834,86.4006,20.4395,99.3608,260.7846,0,U,41921,999,50762,.34165143E-4,.115E-5,0 IRIDIUM 104,2017-003F,2026-09-11T22:21:59.767200,14.34218727,.00024064,86.3936,52.1850,95.3534,264.7936,0,U,41922,999,50570,.78146535E-4,.239E-5,0 IRIDIUM 114,2017-003G,2026-09-12T03:32:30.198336,14.34217876,.00022516,86.3936,52.0777,91.5095,268.6359,0,U,41923,999,50571,.1017639E-4,.48E-6,0 IRIDIUM 108,2017-003H,2026-09-12T02:32:46.376448,14.34217319,.00021229,86.3998,20.4035,95.4162,264.7276,0,U,41924,999,50756,.13137435E-4,.57E-6,0 IRIDIUM 112,2017-003J,2026-09-11T22:12:50.496480,14.34217428,.00021771,86.3932,52.0086,93.3440,266.8005,0,U,41925,999,50570,.9623796E-5,.47E-6,0 IRIDIUM 111,2017-003K,2026-09-11T23:35:02.103072,14.34217168,.00020486,86.3932,52.0577,90.3496,269.7934,0,U,41926,999,50569,.302758E-6,.21E-6,0 IRIDIUM 113,2017-039A,2026-09-12T02:27:07.154496,14.34217887,.00023437,86.3926,285.8502,94.1027,266.0437,0,U,42803,999,48364,.4307159E-5,.32E-6,0 IRIDIUM 123,2017-039B,2026-09-12T03:26:50.871840,14.34217110,.00022806,86.3986,317.3096,90.4345,269.7112,0,U,42804,999,48241,.6004698E-5,.37E-6,0 IRIDIUM 120,2017-039C,2026-09-12T05:38:55.133376,14.34217778,.00021611,86.3916,285.5655,90.3141,269.8303,0,U,42805,999,48365,.5156097E-5,.34E-6,0 IRIDIUM 115,2017-039D,2026-09-12T06:25:06.919680,14.43280866,.00023813,86.4453,285.6927,87.0819,273.0654,0,U,42806,999,48682,.54002136E-4,.202E-5,0 IRIDIUM 118,2017-039E,2026-09-12T02:32:02.807520,14.34217043,.0002263,86.3987,317.3232,95.7939,264.3515,0,U,42807,999,48240,.327E-4,.111E-5,0 IRIDIUM 117,2017-039F,2026-09-12T02:59:26.805984,14.34217218,.00022799,86.3988,317.2723,93.0815,267.0642,0,U,42808,999,48243,.16825826E-4,.67E-6,0 IRIDIUM 126,2017-039G,2026-09-12T03:35:58.861248,14.34216874,.00023193,86.3986,317.3140,94.4538,265.6923,0,U,42809,999,48241,.3035889E-4,.105E-5,0 IRIDIUM 124,2017-039H,2026-09-11T23:50:17.776320,14.43279253,.00024041,86.4431,254.0464,89.3064,270.8412,0,U,42810,999,48763,.429316E-4,.165E-5,0 IRIDIUM 128,2017-039J,2026-09-12T00:01:42.647520,14.34217090,.00021217,86.4026,348.8714,93.1178,267.0261,0,U,42811,999,48242,.7403629E-5,.41E-6,0 IRIDIUM 121,2017-039K,2026-09-12T02:22:54.712704,14.34217343,.00022236,86.3987,317.3635,94.4890,265.6560,0,U,42812,999,48228,.32908121E-4,.112E-5,0 IRIDIUM 133,2017-061A,2026-09-11T23:06:54.690336,14.34217317,.00021266,86.4029,349.0071,93.9727,266.1712,0,U,42955,999,46721,.66592082E-4,.206E-5,0 IRIDIUM 100,2017-061B,2026-09-12T05:39:38.612448,14.34217117,.00021173,86.4029,348.8099,94.8003,265.3434,0,U,42956,999,46725,.15767596E-4,.64E-6,0 IRIDIUM 122,2017-061C,2026-09-12T04:53:58.458048,14.34216864,.00022262,86.4027,348.8235,93.2774,266.8677,0,U,42957,999,46725,.52390201E-4,.166E-5,0 IRIDIUM 129,2017-061D,2026-09-12T00:29:06.649440,14.34217340,.00022943,86.4029,348.9682,100.0802,260.0653,0,U,42958,999,46724,.44790476E-4,.145E-5,0 IRIDIUM 119,2017-061E,2026-09-12T04:44:50.758944,14.34217719,.00022745,86.4028,348.8904,94.2788,265.8668,0,U,42959,999,46728,.55784789E-4,.176E-5,0 IRIDIUM 107,2017-061F,2026-09-12T05:12:14.716800,14.34217588,.00022665,86.4029,348.9041,88.5146,271.6309,0,U,42960,999,46729,.29750357E-4,.103E-5,0 IRIDIUM 132,2017-061G,2026-09-12T05:21:22.707936,14.34217483,.0002186,86.4029,348.8804,95.0877,265.0569,0,U,42961,999,46729,.16597058E-4,.66E-6,0 IRIDIUM 136,2017-061H,2026-09-11T18:23:46.653216,14.34217576,.0002154,86.4029,349.0780,94.7802,265.3639,0,U,42962,999,46724,.22565E-4,.83E-6,0 IRIDIUM 139,2017-061J,2026-09-11T18:32:54.654720,14.34217592,.0002169,86.4030,349.1386,93.0324,267.1120,0,U,42963,999,46725,.39815E-4,.131E-5,0 IRIDIUM 125,2017-061K,2026-09-11T23:16:02.829216,14.34217772,.0002672,86.4033,349.1192,90.3967,269.7535,0,U,42964,999,46729,.39496883E-4,.13E-5,0 IRIDIUM 135,2017-083A,2026-09-12T03:40:11.164800,14.34217885,.0002246,86.3921,285.6598,91.5779,268.5674,0,U,43070,999,45661,.42019073E-4,.137E-5,0 IRIDIUM 138,2017-083B,2026-09-12T02:36:15.119712,14.34218043,.00023939,86.3934,285.3873,93.3457,266.8012,0,U,43071,999,45659,.6014423E-5,.37E-6,0 IRIDIUM 116,2017-083C,2026-09-12T03:31:03.127872,14.34217358,.00019146,86.3921,285.6473,87.3947,272.7468,0,U,43072,999,45663,-.25022889E-4,-.5E-6,0 IRIDIUM 130,2017-083D,2026-09-12T02:45:23.166144,14.34217948,.00022061,86.3930,285.9449,86.9634,273.1814,0,U,43073,999,45657,.11121961E-4,.51E-6,0 IRIDIUM 151,2017-083E,2026-09-12T03:49:19.096320,14.34217739,.00020488,86.3922,285.7016,91.3744,268.7687,0,U,43074,999,45660,.962773E-6,.22E-6,0 IRIDIUM 134,2017-083F,2026-09-12T03:03:39.151008,14.34217572,.00021336,86.3924,285.7244,90.7038,269.4403,0,U,43075,999,45656,-.4361451E-5,.8E-7,0 IRIDIUM 137,2017-083G,2026-09-12T03:21:55.091808,14.34217598,.00017963,86.3925,285.8137,95.8301,264.3100,0,U,43076,999,45663,-.1362119E-5,.16E-6,0 IRIDIUM 141,2017-083H,2026-09-12T03:12:47.127456,14.34217700,.00021853,86.3920,285.6419,93.4479,266.6967,0,U,43077,999,45663,-.2882346E-5,.12E-6,0 IRIDIUM 153,2017-083J,2026-09-12T07:05:19.150656,14.34217317,.00024475,86.3909,254.0354,89.7222,270.4255,0,U,43078,999,45776,-.2072775E-5,.14E-6,0 IRIDIUM 131,2017-083K,2026-09-12T07:55:55.092864,14.34218653,.00022587,86.3926,285.7518,93.8953,266.2501,0,U,43079,999,45659,.65907152E-4,.204E-5,0 IRIDIUM 144,2018-030A,2026-09-12T02:13:03.411840,14.34217670,.00021879,86.3907,254.0473,88.1872,271.9574,0,U,43249,999,44259,.22207628E-4,.82E-6,0 IRIDIUM 149,2018-030B,2026-09-12T05:43:07.338432,14.34217288,.00022177,86.3910,253.9524,90.1069,270.0381,0,U,43250,999,44263,-.6826688E-5,.1E-7,0 IRIDIUM 157,2018-030C,2026-09-12T06:10:31.227168,14.34216558,.00022088,86.3911,253.9995,89.1570,270.9879,0,U,43251,999,44261,-.26268985E-4,-.54E-6,0 IRIDIUM 140,2018-030D,2026-09-12T06:37:55.108128,14.34217645,.0002343,86.3909,254.0038,88.6668,271.4796,0,U,43252,999,44267,-.2280599E-5,.13E-6,0 IRIDIUM 145,2018-030E,2026-09-12T06:19:39.274464,14.34217005,.00019688,86.3910,253.9812,84.3113,275.8307,0,U,43253,999,44260,-.17218723E-4,-.28E-6,0 IRIDIUM 146,2018-030F,2026-09-12T00:50:51.041472,14.34217351,.00021892,86.3907,254.0887,88.1732,271.9715,0,U,43254,999,44258,.6294991E-5,.37E-6,0 IRIDIUM 148,2018-030G,2026-09-12T01:45:39.280320,14.34217434,.00022482,86.3909,254.1172,91.9192,268.2261,0,U,43255,999,44262,-.3194736E-5,.11E-6,0 IRIDIUM 142,2018-030H,2026-09-12T06:01:23.127168,14.34217515,.00021327,86.3905,253.9287,87.9322,272.2118,0,U,43256,999,44261,.2674245E-5,.27E-6,0 IRIDIUM 150,2018-030J,2026-09-12T01:54:47.181600,14.34217788,.00022618,86.3909,254.1196,87.8796,272.2659,0,U,43257,999,44261,.4801682E-5,.33E-6,0 IRIDIUM 143,2018-030K,2026-09-12T01:27:23.018112,14.34217296,.00021472,86.3915,254.2235,87.2705,272.8737,0,U,43258,999,44254,-.8945984E-5,-.5E-7,0 IRIDIUM 161,2018-047C,2026-09-11T11:39:40.464864,14.43280412,.00022551,86.4455,52.3547,96.0067,264.1391,0,U,43478,999,43758,.2237781E-5,.28E-6,0 IRIDIUM 152,2018-047D,2026-09-12T04:09:02.229408,14.34218008,.0002192,86.3932,51.9295,92.3240,267.8207,0,U,43479,999,43495,.9645392E-5,.47E-6,0 IRIDIUM 147,2018-047E,2026-09-12T04:18:10.070208,14.34217659,.00020297,86.3935,51.9335,89.3713,270.7715,0,U,43480,999,43495,-.5617498E-5,.4E-7,0 IRIDIUM 110,2018-047F,2026-09-12T04:27:18.366336,14.34217599,.00023183,86.3937,52.0250,97.1629,262.9830,0,U,43481,999,43494,.12684359E-4,.55E-6,0 IRIDIUM 162,2018-047G,2026-09-11T23:09:26.419968,14.43279537,.0002098,86.4454,52.0440,90.3919,269.7522,0,U,43482,999,43764,.55220157E-4,.206E-5,0 IRIDIUM 160,2018-061A,2026-09-11T20:27:26.237664,14.34217253,.00021421,86.4002,20.5497,95.0993,265.0447,0,U,43569,999,42579,.21462605E-4,.8E-6,0 IRIDIUM 166,2018-061B,2026-09-12T07:06:46.180512,14.34216533,.00019562,86.3996,20.3139,93.1961,266.9458,0,U,43570,999,42588,-.24364655E-4,-.48E-6,0 IRIDIUM 158,2018-061C,2026-09-12T08:01:34.489344,14.34217155,.00021753,86.4001,20.3076,92.5487,267.5958,0,U,43571,999,42585,.21724265E-4,.81E-6,0 IRIDIUM 165,2018-061D,2026-09-12T06:57:38.434752,14.34217428,.00020787,86.4002,20.3744,91.8223,268.3211,0,U,43572,999,42587,.19720556E-4,.75E-6,0 IRIDIUM 155,2018-061E,2026-09-12T07:43:18.409440,14.34217313,.0002162,86.3999,20.2257,91.3879,268.7565,0,U,43573,999,42584,.4481488E-5,.32E-6,0 IRIDIUM 154,2018-061F,2026-09-11T21:13:06.372192,14.34217522,.00020379,86.4002,20.5465,92.4080,267.7349,0,U,43574,999,42583,.19566216E-4,.75E-6,0 IRIDIUM 163,2018-061G,2026-09-12T06:48:30.409920,14.34217575,.00021978,86.4000,20.2921,95.0174,265.1273,0,U,43575,999,42586,.33101216E-4,.112E-5,0 IRIDIUM 156,2018-061H,2026-09-12T07:52:26.038560,14.34216361,.00021637,86.3999,20.2811,89.6928,270.4516,0,U,43576,999,42586,.38182163E-4,.127E-5,0 IRIDIUM 164,2018-061J,2026-09-12T02:23:38.361120,14.34217801,.00019788,86.4001,20.4180,92.8394,267.3029,0,U,43577,999,42587,.28853019E-4,.101E-5,0 IRIDIUM 159,2018-061K,2026-09-12T01:37:58.363968,14.34217342,.00021871,86.4001,20.3664,95.1561,264.9884,0,U,43578,999,42583,.5623298E-5,.36E-6,0 IRIDIUM 180,2019-002A,2026-09-12T03:17:42.910080,14.34218874,.00022464,86.3987,317.2719,95.7237,264.4215,0,U,43922,999,40145,.48641393E-4,.156E-5,0 IRIDIUM 176,2019-002B,2026-09-12T03:47:00.019968,14.72258055,.0002409,86.6106,317.1948,93.9627,266.1865,0,U,43923,999,41204,.70467619E-4,.469E-5,0 IRIDIUM 168,2019-002C,2026-09-12T03:08:34.551744,14.34216441,.00022039,86.3991,317.3546,95.1320,265.0127,0,U,43924,999,40143,.48642203E-4,.156E-5,0 IRIDIUM 173,2019-002D,2026-09-12T02:50:18.839904,14.34217340,.00023093,86.3984,317.2446,94.4846,265.6614,0,U,43925,999,40141,.27738906E-4,.97E-6,0 IRIDIUM 169,2019-002E,2026-09-12T06:23:46.822560,14.38609940,.00024497,86.4283,348.8044,85.6417,274.5062,0,U,43926,999,40274,.62965932E-4,.213E-5,0 IRIDIUM 172,2019-002F,2026-09-12T04:21:38.989728,14.34217151,.0002223,86.3985,317.2265,96.0047,264.1402,0,U,43927,999,40143,.10360359E-3,.31E-5,0 IRIDIUM 175,2019-002G,2026-09-12T01:21:55.643328,14.43645102,.00015366,86.4462,254.1914,337.7030,22.4104,0,U,43928,999,41151,.25072377E-4,.105E-5,0 IRIDIUM 171,2019-002H,2026-09-12T03:54:14.805504,14.34218567,.00021893,86.3996,317.5504,92.7461,267.3985,0,U,43929,999,40142,.51063191E-4,.163E-5,0 IRIDIUM 170,2019-002J,2026-09-12T03:55:55.732800,14.72255529,.00024799,86.6106,317.1940,94.8814,265.2686,0,U,43930,999,41205,.71040938E-4,.473E-5,0 IRIDIUM 167,2019-002K,2026-09-12T03:45:06.727104,14.34216516,.00021167,86.3987,317.2604,89.2058,270.9380,0,U,43931,999,40142,.27097652E-4,.96E-6,0 IRIDIUM 181,2023-068S,2026-09-12T07:44:52.474848,14.43311125,.00021072,86.4538,20.3553,97.5531,262.5910,0,U,56726,999,17500,.54415638E-4,.203E-5,0 IRIDIUM 177,2023-068T,2026-09-12T06:52:50.937024,14.77161956,.00025826,86.1927,287.4625,92.4692,267.6823,0,U,56727,999,17924,.77492972E-4,.574E-5,0 IRIDIUM 174,2023-068U,2026-09-12T03:38:07.875456,14.72256014,.00027057,86.6115,317.3553,93.4862,266.6665,0,U,56728,999,17881,.72459924E-4,.482E-5,0 IRIDIUM 178,2023-068V,2026-09-12T06:10:54.861888,14.80036436,.00027031,86.6597,348.9990,98.3821,261.7707,0,U,56729,999,17924,.61727175E-4,.493E-5,0 IRIDIUM 179,2023-068W,2026-09-12T06:03:11.783808,14.80046788,.00023683,86.6837,358.2331,90.8935,269.2558,0,U,56730,999,17924,.94925649E-4,.744E-5,0